Tracking 30995 objects as of 5-Jul-2025
HD Live streaming from Space Station
objects crossing your sky now

ONEWEB-0699

Track ONEWEB-0699 now!
10-day predictions
ONEWEB-0699 is classified as:


NORAD ID: 61605
Int'l Code: 2024-188M
Perigee: 1,226.9 km
Apogee: 1,230.8 km
Inclination: 87.9 °
Period: 109.9 minutes
Semi major axis: 7599 km
RCS: Unknown
Launch date: October 20, 2024
Source: United States (US)
Launch site: AIR FORCE WESTERN TEST RANGE (AFWTR)
Your satellite tracking list
STARLINK-5385
Track 1 satellite(s)




NASA's NSSDC Master Catalog

Two Line Element Set (TLE):
1 61605U 24188M   25186.32339731 -.00000031  00000-0 -12585-3 0  9994
2 61605  87.8818 105.4285 0002552  71.8608 288.2797 13.10368259 37886
Source of the keplerian elements: AFSPC